Flag for Sweden Weather past 2 weeks in Malmö, Sweden

Now
79 °F

Sunny.


Feels Like: 80 °F
Forecast: 59 / 71 °F
Wind: 15 mph from East

Location: Malmo / Sturup

Current Time: Aug 4, 2015 at 2:29:29 PM

Latest Report: Aug 4, 2015 at 1:50 PM


Visibility: 10 mi

Pressure: 29.95 "Hg

Humidity: 54%

Dew point: 61 °F

Location of MalmöLocation

Historic Weather in Malmö — Graph

°F

Malmö temperature yesterday

Maximum temperature yesterday: 73 °F (at 2:20 PM)
Minimum temperature yesterday: 48 °F (at 5:20 AM)
Average temperature yesterday: 63 °F

Past Weeks' High & Low Weather Summary

 TemperatureHumidityPressure
High79 °F (Aug 4, 12:50 PM)100% (Jul 21, 3:50 AM)30.15 "Hg (Jul 21, 3:50 AM)
Low43 °F (Aug 1, 5:50 AM)44% (Aug 2, 3:20 PM)29.42 "Hg (Jul 25, 7:20 PM)
Average60 °F77%29.80 "Hg
* Reported Jul 20 1:20 PM — Aug 4 1:20 PM, Malmö, Weather by CustomWeather, © 2015

Note: Actual official high and low records may vary slightly from our data, if they occured in-between our weather recording intervals... More about our weather records

Advertising

Malmö weather history for previous 24 hours

 ConditionsComfort  
Time TempWeatherWind HumidityBarometerVisibility
1:20 PM
Tue, Aug 4
79 °FSunny.14 mph51%29.95 "Hg10 mi
12:50 PM79 °FSunny.15 mph51%29.95 "Hg10 mi
12:20 PM77 °FSunny.14 mph54%29.98 "Hg10 mi
11:50 AM77 °FSunny.13 mph61%29.98 "Hg10 mi
11:20 AM75 °FSunny.14 mph61%30.01 "Hg10 mi
10:50 AM73 °FSunny.15 mph65%30.01 "Hg10 mi
10:20 AM72 °FSunny.14 mph69%30.01 "Hg10 mi
9:50 AM70 °FSunny.15 mph69%30.01 "Hg10 mi
9:20 AM68 °FSunny.14 mph73%30.01 "Hg10 mi
8:50 AM68 °FSunny.14 mph73%30.01 "Hg10 mi
8:20 AM66 °FSunny.14 mph73%30.01 "Hg10 mi
7:50 AM66 °FSunny.13 mph73%30.01 "Hg10 mi
7:20 AM64 °FSunny.14 mph73%30.01 "Hg10 mi
6:50 AM63 °FSunny.14 mph77%30.04 "Hg10 mi
6:20 AM63 °FSunny.13 mph77%30.04 "Hg10 mi
5:50 AM63 °FClear.12 mph77%30.04 "Hg10 mi
5:20 AM63 °FClear.12 mph77%30.04 "Hg10 mi
4:50 AM61 °FClear.13 mph83%30.04 "Hg10 mi
4:20 AM61 °FClear.10 mph83%30.04 "Hg10 mi
3:50 AM61 °FClear.12 mph83%30.07 "Hg10 mi
3:20 AM61 °FClear.13 mph83%30.07 "Hg10 mi
2:50 AM61 °FClear.12 mph83%30.07 "Hg10 mi
2:20 AM61 °FClear.12 mph83%30.07 "Hg10 mi
1:50 AM61 °FClear.12 mph83%30.07 "Hg10 mi
1:20 AM61 °FClear.13 mph77%30.09 "Hg10 mi
12:50 AM61 °FClear.14 mph77%30.09 "Hg10 mi
12:20 AM61 °FClear.13 mph72%30.09 "Hg10 mi
11:20 PM
Mon, Aug 3
61 °FClear.16 mph72%30.09 "Hg10 mi
10:50 PM61 °FClear.14 mph72%30.09 "Hg10 mi
10:20 PM61 °FClear.13 mph72%30.09 "Hg10 mi
9:50 PM61 °FSunny.12 mph72%30.09 "Hg10 mi
9:20 PM63 °FSunny.10 mph64%30.09 "Hg10 mi
8:50 PM64 °FSunny.9 mph60%30.09 "Hg10 mi
8:20 PM66 °FSunny.10 mph56%30.09 "Hg10 mi
7:50 PM68 °FSunny.9 mph56%30.09 "Hg10 mi
7:20 PM68 °FSunny.9 mph56%30.09 "Hg10 mi
6:50 PM68 °FSunny.12 mph56%30.09 "Hg10 mi
6:20 PM70 °FSunny.9 mph50%30.12 "Hg10 mi
5:50 PM70 °FSunny.12 mph53%30.12 "Hg10 mi
5:20 PM72 °FSunny.10 mph50%30.12 "Hg10 mi
4:50 PM72 °FSunny.12 mph44%30.12 "Hg10 mi
4:20 PM72 °FSunny.12 mph44%30.12 "Hg10 mi
3:50 PM72 °FSunny.12 mph47%30.12 "Hg10 mi
3:20 PM73 °FPassing clouds.10 mph44%30.12 "HgN/A
2:20 PM73 °FSunny.9 mph44%30.15 "Hg10 mi
Weather by CustomWeather, © 2015

See weather overviewHow to use our weather pages